Location: Bli��� Lhota
(48.7570°N, 14.0120°E)
Time: 05:15:18
(UTC+00:00)

Meteor 2-5 Rocket - Pass Details

Date: 18 September 2020
Orbit: 833 x 912 km, 81.2° (Epoch: 27 October)

Event Time Altitude Azimuth Distance (km) Brightness Sun altitude
Rises 18:37:43 0° 353° (N) 3,412 7.2 -15.0°
Reaches altitude 10° 18:40:19 10° 2° (N) 2,482 6.4 -15.4°
Maximum altitude 18:45:32 38° 69° (ENE) 1,293 4.3 -16.2°
Enters shadow 18:47:55 26° 116° (ESE) 1,622 4.6 -16.6°
